Content
SEND FEEDBACK

Daily
Averages
Monthly
Summary
United States of America

ACHANG BAY, GUAM


Home > North America > United States > Guam
Elevation: 30 feet     Latitude: 13 16N     Longitude: 144 45E

WEATHER
 
SELECT A DAY
Number of Records: 356,513;   Date Range: 1/1/95 - 12/18/14
 
SHARE

PRINT THIS DATA

[ ← Previous Day ]
WEATHER ALMANAC - JULY 22, 2014
[ Next Day → ]
[ °C ]   °F
Weather ElementAverageHighLow
Temperature82.4 °F86 °F (10:58 am)78.8 °F (4:39 am)
Dewpoint76.9 °F78.8 °F (12:43 pm)74.7 °F (2:58 am)
Humidity83.6 %94 % (4:39 am)74 % (11:18 am)
Barometer29.83 in29.87 in (8:08 am)29.77 in (3:58 pm)
Wind Speed11.2 mph19.6 mph (3:46 pm)
Wind Gust24.2 mph (3:46 pm)
Weather ElementAverage
Visibility9.4 mi
Wind DirectionESE (95.8 °)

Weather ElementTotal
Precipitation0.37 in
Cooling Degree Days17.4 (Base 65)
Growing Degree Days32.4 (Base 50)
Averaged from 85 records on July 22, 2014
WEATHER CONDITIONS BREAKOUT
WIND DIRECTION BREAKOUT
WEATHER BY HOUR - JULY 22, 2014
[ °C ]   °F
Local TimeTemperatureDewpointHumidityBarometerVisibilityWind DirectionWind SpeedGust SpeedPrecipitationEventsConditions
1:58 AM80.6 °F75.0 °F83 %29.81 in10.0 miSE (140°)12.7 mphPartly Cloudy
2:58 AM80.6 °F74.7 °F82 %29.81 in10.0 miSE (130°)13.8 mphPartly Cloudy
3:23 AM80.6 °F75.2 °F84 %29.84 in10.0 miSE (130°)10.4 mphMostly Cloudy
3:33 AM80.6 °F75.2 °F84 %29.83 in10.0 miSE (130°)12.7 mphMostly Cloudy
3:38 AM80.6 °F75.2 °F84 %29.83 in10.0 miSE (130°)11.5 mphMostly Cloudy
3:43 AM80.6 °F75.2 °F84 %29.83 in10.0 miSE (130°)9.2 mphMostly Cloudy
3:58 AM80.8 °F75.0 °F83 %29.81 in10.0 miSE (130°)12.7 mphMostly Cloudy
4:03 AM80.6 °F75.2 °F84 %29.83 in10.0 miSE (130°)12.7 mphMostly Cloudy
4:08 AM80.6 °F75.2 °F84 %29.83 in10.0 miSE (130°)10.4 mphMostly Cloudy
4:18 AM80.6 °F75.2 °F84 %29.83 in10.0 miESE (120°)9.2 mphMostly Cloudy
4:23 AM80.6 °F75.2 °F84 %29.83 in10.0 miESE (110°)8.1 mphMostly Cloudy
4:27 AM80.6 °F75.2 °F84 %29.83 in5.0 miSE (140°)12.7 mphRainHeavy Rain
4:39 AM78.8 °F77.0 °F94 %29.83 in10.0 miESE (110°)10.4 mphOvercast
4:49 AM78.8 °F77.0 °F94 %29.83 in10.0 miEast (100°)9.2 mphMostly Cloudy
4:54 AM78.8 °F77.0 °F94 %29.83 in10.0 miESE (110°)8.1 mphScattered Clouds
4:58 AM79.3 °F77.0 °F93 %29.81 in10.0 miEast (100°)8.1 mph0.03 inScattered Clouds
5:58 AM79.5 °F76.6 °F91 %29.81 in10.0 miESE (120°)9.2 mphScattered Clouds
6:13 AM80.6 °F77.0 °F89 %29.85 in10.0 miESE (110°)8.1 mphMostly Cloudy
6:18 AM80.6 °F77.0 °F89 %29.85 in10.0 miESE (120°)8.1 mphMostly Cloudy
6:33 AM80.6 °F77.0 °F89 %29.86 in10.0 miESE (110°)8.1 mphMostly Cloudy
6:38 AM80.6 °F77.0 °F89 %29.86 in10.0 miESE (110°)6.9 mphMostly Cloudy
6:48 AM80.6 °F77.0 °F89 %29.86 in10.0 miEast (100°)9.2 mphScattered Clouds
6:58 AM80.6 °F76.3 °F87 %29.84 in10.0 miESE (120°)10.4 mphScattered Clouds
7:43 AM82.4 °F77.0 °F84 %29.86 in10.0 miESE (120°)12.7 mphMostly Cloudy
7:48 AM82.4 °F77.0 °F84 %29.86 in10.0 miESE (110°)12.7 mphMostly Cloudy
7:53 AM82.4 °F77.0 °F84 %29.86 in10.0 miESE (110°)12.7 mphMostly Cloudy
7:58 AM82.2 °F76.6 °F83 %29.83 in10.0 miEast (100°)11.5 mphMostly Cloudy
8:03 AM82.4 °F77.0 °F84 %29.86 in10.0 miESE (110°)11.5 mphMostly Cloudy
8:08 AM82.4 °F77.0 °F84 %29.87 in10.0 miEast (100°)10.4 mphMostly Cloudy
8:13 AM82.4 °F77.0 °F84 %29.87 in10.0 miEast (100°)12.7 mphMostly Cloudy
8:18 AM82.4 °F77.0 °F84 %29.87 in10.0 miEast (100°)13.8 mphMostly Cloudy
8:58 AM84.2 °F77.7 °F81 %29.86 in10.0 miEast (100°)13.8 mphMostly Cloudy
9:33 AM84.2 °F77.0 °F79 %29.87 in10.0 miEast (100°)13.8 mphScattered Clouds
9:58 AM85.1 °F76.6 °F76 %29.86 in10.0 miESE (120°)13.8 mphPartly Cloudy
10:58 AM86.0 °F77.2 °F75 %29.84 in10.0 miESE (110°)12.7 mphPartly Cloudy
11:18 AM86.0 °F77.0 °F74 %29.87 in10.0 miESE (110°)10.4 mphMostly Cloudy
11:33 AM86.0 °F77.0 °F74 %29.87 in10.0 miESE (120°)12.7 mphMostly Cloudy
11:38 AM86.0 °F77.0 °F74 %29.87 in10.0 miEast (100°)11.5 mphScattered Clouds
11:58 AM85.5 °F77.9 °F78 %29.83 in10.0 miEast (100°)10.4 mphScattered Clouds
12:18 PM86.0 °F77.0 °F74 %29.85 in10.0 miESE (110°)10.4 mphMostly Cloudy
12:23 PM86.0 °F77.0 °F74 %29.85 in10.0 miEast (90°)10.4 mphMostly Cloudy
12:43 PM86.0 °F78.8 °F79 %29.85 in10.0 miEast (90°)11.5 mphMostly Cloudy
12:48 PM86.0 °F77.0 °F74 %29.85 in10.0 miESE (120°)10.4 mphMostly Cloudy
12:58 PM85.6 °F77.5 °F77 %29.82 in10.0 miEast (100°)12.7 mphMostly Cloudy
1:01 PM84.2 °F77.0 °F79 %29.85 in10.0 miENE (70°)11.5 mphLight Drizzle
1:10 PM86.0 °F77.0 °F74 %29.84 in10.0 miEast (90°)12.7 mphMostly Cloudy
1:35 PM86.0 °F77.0 °F74 %29.84 in10.0 miEast (90°)11.5 mph17.3 mphMostly Cloudy
1:55 PM86.0 °F77.0 °F74 %29.83 in10.0 miEast (80°)13.8 mphScattered Clouds
1:58 PM85.3 °F77.0 °F76 %29.81 in10.0 miENE (70°)13.8 mph0.00 inScattered Clouds
2:58 PM85.1 °F77.4 °F78 %29.79 in10.0 miEast (90°)12.7 mphMostly Cloudy
3:08 PM84.2 °F77.0 °F79 %29.81 in10.0 miEast (80°)11.5 mphMostly Cloudy
3:18 PM84.2 °F77.0 °F79 %29.81 in10.0 miENE (70°)15.0 mphMostly Cloudy
3:28 PM84.2 °F77.0 °F79 %29.81 in10.0 miENE (60°)12.7 mphMostly Cloudy
3:33 PM86.0 °F77.0 °F74 %29.81 in10.0 miENE (60°)12.7 mphMostly Cloudy
3:36 PM86.0 °F77.0 °F74 %29.80 in10.0 miEast (80°)13.8 mphLight Drizzle
3:46 PM84.2 °F78.8 °F84 %29.81 in3.0 miENE (70°)19.6 mph24.2 mphRainHeavy Rain
3:51 PM82.4 °F78.8 °F89 %29.80 in0.5 miEast (90°)8.1 mph24.2 mphRainHeavy Rain
3:56 PM80.6 °F77.0 °F89 %29.80 in0.5 miEast (90°)6.9 mph20.7 mphFog-RainLight Rain
3:58 PM80.6 °F77.0 °F89 %29.77 in0.5 miEast (90°)8.1 mph20.7 mph0.34 inFog-RainLight Rain
4:00 PM80.6 °F77.0 °F89 %29.80 in2.0 miEast (80°)12.7 mphMostly Cloudy
4:05 PM80.6 °F77.0 °F89 %29.80 in10.0 miEast (80°)11.5 mphMostly Cloudy
4:10 PM82.4 °F78.8 °F89 %29.80 in10.0 miEast (90°)11.5 mphMostly Cloudy
4:25 PM82.4 °F78.8 °F89 %29.80 in10.0 miEast (80°)13.8 mphMostly Cloudy
4:30 PM82.4 °F78.8 °F89 %29.79 in10.0 miEast (80°)11.5 mphScattered Clouds
4:58 PM83.5 °F77.9 °F83 %29.77 in10.0 miENE (70°)12.7 mph0.00 inScattered Clouds
5:13 PM84.2 °F78.8 °F84 %29.81 in10.0 miENE (70°)11.5 mphMostly Cloudy
5:23 PM82.4 °F77.0 °F84 %29.81 in10.0 miENE (70°)10.4 mphScattered Clouds
5:38 PM82.4 °F77.0 °F84 %29.81 in10.0 miENE (70°)12.7 mphMostly Cloudy
5:53 PM82.4 °F77.0 °F84 %29.81 in10.0 miENE (70°)11.5 mphMostly Cloudy
5:58 PM82.4 °F77.2 °F84 %29.78 in10.0 miEast (80°)11.5 mphMostly Cloudy
6:03 PM82.4 °F77.0 °F84 %29.82 in10.0 miENE (70°)10.4 mphMostly Cloudy
6:13 PM82.4 °F77.0 °F84 %29.82 in10.0 miENE (70°)10.4 mphMostly Cloudy
6:18 PM82.4 °F77.0 °F84 %29.82 in10.0 miEast (80°)10.4 mphMostly Cloudy
6:48 PM80.6 °F77.0 °F89 %29.83 in10.0 miENE (70°)10.4 mphMostly Cloudy
6:53 PM80.6 °F77.0 °F89 %29.83 in10.0 miENE (70°)9.2 mphScattered Clouds
6:58 PM81.1 °F76.8 °F87 %29.81 in10.0 miENE (70°)9.2 mphScattered Clouds
7:03 PM80.6 °F77.0 °F89 %29.83 in10.0 miENE (70°)10.4 mphScattered Clouds
7:08 PM80.6 °F77.0 °F89 %29.84 in10.0 miENE (70°)11.5 mphMostly Cloudy
7:13 PM80.6 °F77.0 °F89 %29.84 in10.0 miENE (70°)10.4 mphMostly Cloudy
7:23 PM80.6 °F77.0 °F89 %29.84 in10.0 miEast (80°)12.7 mphScattered Clouds
7:58 PM81.0 °F76.8 °F87 %29.81 in10.0 miEast (80°)8.1 mphPartly Cloudy
8:58 PM80.8 °F76.6 °F87 %29.82 in10.0 miEast (80°)10.4 mphScattered Clouds
9:58 PM80.6 °F76.5 °F87 %29.83 in10.0 miEast (80°)10.4 mphPartly Cloudy
10:58 PM80.8 °F76.5 °F87 %29.82 in10.0 miEast (80°)10.4 mphPartly Cloudy
11:58 PM80.8 °F75.6 °F84 %29.81 in10.0 miEast (100°)11.5 mphPartly Cloudy
Hourly data recorded from PGUA, located miles away from Achang Bay, Guam







STORIES FROM OUR PARTNERS